[[{"header":{"parameterUnit":"m.s-1","parameterCategory":1,"la1":30.2991,"la2":30.254,"lo1":-89.0895,"lo2":-89.0444,"dy":0.0017,"dx":0.0017,"nx":28,"ny":28,"refTime":"2024-12-11T09:00:00:Z","depth":0,"parameterNumber":2,"parameterNumberName":"U-component_of_WINDS"},"data":[0,0,0,0,0,0,0,0,0,0,0,0,0,0,0,0,0,0,0,0,0,0,0,0,0,0,0,0,0,0,0,0,0,0,0,0,0,0,0,0,0,0,0,0,0,0,0,0,0,0,0,0,0,0,0,0,0,0,-3.002,-3.002,0,-3.0049,-3.0049,-3.005,-2.9962,-2.9959,-2.9957,-2.9954,-2.9983,-2.9986,-2.999,0,0,0,0,0,0,0,0,0,0,0,0,0,-2.9887,-2.989,-3.002,-3.002,-3.0021,-3.0049,-3.0049,-3.005,-2.9963,-2.9959,-2.9956,-2.9953,-2.9982,-2.9986,-2.999,0,0,0,0,0,0,0,0,0,0,0,0,0,-2.9934,-2.9891,-3.002,-2.9981,-2.9977,-3.0049,-3.0049,-3.005,-2.9963,-2.9959,-2.9955,-2.9951,-2.9981,-2.9986,-2.999,-3.0101,0,0,-3.0005,-3.0007,0,0,0,0,0,0,0,0,-2.9931,-2.9939,-2.9986,-2.9983,-2.998,-2.9998,-3.0013,-3.0067,-2.9964,-2.9969,-2.9954,-2.995,-2.9991,-2.9995,-3.0009,-3.0102,-3.0104,-3.0006,-3.0009,-3.0011,-3.0012,0,0,0,0,0,0,0,-2.9928,-2.9937,-3.0031,-2.9987,-2.9983,-2.9961,-2.9963,-3.0023,-3.0002,-2.9968,-2.9962,-2.9966,-2.9989,-3.0005,-3.0009,-3.0104,-3.0006,-3.001,-3.0013,-3.0015,-3.0288,-3.0292,0,0,0,0,0,0,-2.993,-2.9935,-3.003,-3.0032,-2.9945,-2.9967,-2.9969,-2.9996,-3.0001,-2.9998,-2.997,-2.9962,-2.9998,-3.0004,-3.001,-3.0139,-3.0011,-3.0015,-3.0018,-3.0284,-3.0289,-3.0294,0,0,0,0,0,0,-2.9928,-2.994,-3.0029,-2.9982,-2.9992,-2.9973,-3.0004,-2.9999,-3.0015,-3.0003,-2.9998,-2.999,-2.9995,-3.0003,-3.0079,-3.0139,-3.0018,-3.0022,-3.0279,-3.0285,-3.0291,-3.0398,0,0,0,0,0,0,-2.9924,-2.9939,-2.9981,-2.9983,-2.9995,-3.0099,-3.0008,-3.0002,-3.0024,-3.0014,-3.002,-3.0018,-2.9993,-3.0072,-3.0084,-3.0143,-3.0026,-3.0273,-3.0282,-3.0289,-3.0389,-3.0408,-3.0423,0,0,0,0,0,-2.992,-3.001,-2.9984,-2.9996,-3.0047,-3.0102,-3.0108,-3.0078,-3.0029,-3.0071,-3.0063,-3.0017,-3.013,-3.008,-3.0093,-3.0155,-3.0269,-3.0279,-3.0289,-3.0382,-3.0404,-3.0423,0,0,0,0,0,0,-3.0016,-3.001,-2.9981,-3.0075,-3.009,-3.0087,-3.0139,-3.0103,-3.0132,-3.0122,-3.0083,-3.0085,-3.0168,-3.0169,-3.0113,-3.0261,-3.0191,-3.0204,-3.0258,-3.0279,-3.0295,-3.0293,-3.003,0,0,0,0,0,-3.0048,-3.0093,-3.0086,-3.017,-3.0179,-3.0158,-3.0181,-3.0156,-3.017,-3.0176,-3.0173,-3.0188,-3.0226,-3.0253,-3.0288,-3.0389,-3.0389,-3.0438,-3.0455,-3.0469,-3.048,-3.0533,-3.0554,-3.0325,-3.0325,-3.0325,0,0,-3.0115,-3.0117,-3.0148,-3.0189,-3.0197,-3.0245,-3.0164,-3.0218,-3.0252,-3.0184,-3.0255,-3.0254,-3.0268,-3.0356,-3.0395,-3.036,-3.0543,-3.0481,-3.0492,-3.0496,-3.0545,-3.0567,-3.0586,-3.0332,-3.0331,-3.033,0,0,-3.026,-3.0267,-3.0337,-3.0348,-3.0362,-3.0347,-3.0364,-3.0367,-3.0364,-3.0435,-3.0384,-3.0425,-3.0492,-3.0504,-3.0519,-3.0669,-3.0628,-3.0681,-3.0769,-3.0821,-3.0839,-3.0855,-3.0908,-3.0927,-3.0692,-3.0693,-3.0693,0,-3.0341,-3.0411,-3.0378,-3.0435,-3.0454,-3.0394,-3.0465,-3.0476,-3.0501,-3.0515,-3.0475,-3.0558,-3.0563,-3.0654,-3.069,-3.0705,-3.0722,-3.068,-3.084,-3.0855,-3.0869,-3.0919,-3.0939,-3.0699,-3.0698,-3.0698,-3.0697,0,-3.051,-3.0559,-3.0614,-3.0639,-3.0664,-3.0728,-3.0704,-3.0733,-3.0707,-3.0696,-3.0769,-3.0773,-3.0807,-3.0827,-3.0801,-3.0914,-3.0891,-3.0846,-3.0774,-3.0898,-3.0944,-3.0963,-3.0708,-3.0706,-3.0704,-3.0702,0,0,-3.0716,-3.0722,-3.0743,-3.0753,-3.0764,-3.0802,-3.0862,-3.0896,-3.0921,-3.0941,-3.099,-3.1048,-3.1007,-3.1023,-3.0999,-3.1045,-3.1162,-3.0994,-3.0993,-3.1024,-3.1284,-3.1317,-3.134,-3.1135,-3.1138,-3.1141,-3.1283,0,-3.0859,-3.0963,-3.0934,-3.1038,-3.1082,-3.1026,-3.1079,-3.1091,-3.1083,-3.1119,-3.111,-3.1152,-3.1094,-3.1104,-3.1147,-3.1139,-3.1213,-3.1128,-3.1179,-3.1182,-3.1177,-3.1364,-3.1399,-3.1533,-3.1301,-3.1304,-3.1306,0,-3.1039,-3.1065,-3.1173,-3.1176,-3.1194,-3.1242,-3.127,-3.1305,-3.1318,-3.1309,-3.1328,-3.1294,-3.1352,-3.1281,-3.1361,-3.1304,-3.1323,-3.1323,-3.1327,-3.133,-3.1251,-3.1371,-3.1574,-3.1594,-3.1334,-3.1332,-3.133,0,-3.1178,-3.124,-3.1312,-3.1323,-3.1329,-3.1363,-3.1367,-3.1376,-3.1398,-3.1422,-3.1436,-3.1467,-3.1484,-3.1509,-3.1484,-3.1435,-3.1568,-3.1495,-3.1561,-3.1562,-3.1591,-3.1589,-3.1799,-3.1605,-3.1605,-3.1605,-3.1604,0,-3.1339,-3.1407,-3.1374,-3.1419,-3.1493,-3.146,-3.1534,-3.1532,-3.154,-3.1582,-3.1536,-3.1577,-3.1541,-3.1579,-3.156,-3.1629,-3.1637,-3.1631,-3.1624,-3.1634,-3.1635,-3.1646,-3.1635,-3.161,-3.1609,-3.1608,-3.1607,0,-3.1506,-3.1487,-3.1562,-3.1561,-3.1563,-3.1618,-3.1616,-3.1657,-3.1646,-3.17,-3.1711,-3.1693,-3.1735,-3.1713,-3.1756,-3.1743,-3.1831,-3.1813,-3.1827,-3.1822,-3.1889,-3.1883,-3.2113,-3.2141,-3.193,-3.1932,-3.1934,0,-3.161,-3.1661,-3.1666,-3.1691,-3.1698,-3.174,-3.1762,-3.173,-3.1755,-3.1773,-3.1812,-3.1849,-3.1878,-3.1947,-3.1938,-3.197,-3.1952,-3.203,-3.1956,-3.1964,-3.1952,-3.1949,-3.1953,-3.2045,-3.2047,-3.2049,-3.2051,0,-3.1797,-3.1785,-3.1818,-3.1849,-3.1876,-3.1899,-3.1917,-3.1941,-3.191,-3.194,-3.1982,-3.2004,-3.2048,-3.2086,-3.2114,-3.2117,-3.2079,-3.2074,-3.2091,-3.2101,-3.2107,-3.2104,-3.1867,-3.2069,-3.2067,-3.2066,-3.2065,-3.2064,-3.1935,-3.1977,-3.1987,-3.2025,-3.2036,-3.2054,-3.2092,-3.2086,-3.212,-3.2154,-3.2133,-3.2183,-3.2193,-3.2227,-3.2235,-3.2273,-3.2241,-3.2266,-3.2272,-3.2279,-3.2287,-3.2102,-3.2278,-3.2277,-3.2277,-3.2276,-3.2276,0,-3.2117,-3.2121,-3.2157,-3.2184,-3.2215,-3.2177,-3.2195,-3.2223,-3.2267,-3.228,-3.2309,-3.2357,-3.2393,-3.2387,-3.242,-3.2451,-3.2435,-3.2461,-3.2458,-3.2459,-3.2314,-3.2296,-3.2474,-3.2474,-3.2474,-3.2474,-3.2474,-3.2474,-3.2216,-3.2286,-3.2275,-3.2348,-3.2351,-3.2399,-3.2413,-3.2429,-3.2439,-3.2495,-3.2525,-3.2521,-3.2526,-3.2559,-3.259,-3.2587,-3.2601,-3.2634,-3.2624,-3.2489,-3.2469,-3.2451,-3.2433,-3.2637,-3.2638,-3.2766,-3.2767,-3.2768]},{"header":{"parameterUnit":"m.s-1","parameterCategory":1,"la1":30.2991,"la2":30.254,"lo1":-89.0895,"lo2":-89.0444,"dy":0.0017,"dx":0.0017,"nx":28,"ny":28,"refTime":"2024-12-11T09:00:00:Z","depth":0,"parameterNumber":3,"parameterNumberName":"V-component_of_WINDS"},"data":[0,0,0,0,0,0,0,0,0,0,0,0,0,0,0,0,0,0,0,0,0,0,0,0,0,0,0,0,0,0,0,0,0,0,0,0,0,0,0,0,0,0,0,0,0,0,0,0,0,0,0,0,0,0,0,0,0,0,-2.0219,-2.022,0,-2.0301,-2.0302,-2.0302,-2.0316,-2.0315,-2.0315,-2.0314,-2.0396,-2.0399,-2.0402,0,0,0,0,0,0,0,0,0,0,0,0,0,-2.0071,-2.0074,-2.0219,-2.022,-2.0221,-2.03,-2.0302,-2.0303,-2.0316,-2.0315,-2.0314,-2.0314,-2.0395,-2.0398,-2.0402,0,0,0,0,0,0,0,0,0,0,0,0,0,-2.0142,-2.0075,-2.0219,-2.0237,-2.024,-2.03,-2.0302,-2.0303,-2.0316,-2.0315,-2.0314,-2.0313,-2.0394,-2.0398,-2.0402,-2.045,0,0,-2.0415,-2.0417,0,0,0,0,0,0,0,0,-2.0138,-2.0148,-2.0233,-2.0236,-2.0239,-2.0297,-2.028,-2.0352,-2.0316,-2.0287,-2.0314,-2.0313,-2.0364,-2.037,-2.0388,-2.0454,-2.0457,-2.0416,-2.0418,-2.042,-2.0421,0,0,0,0,0,0,0,-2.0133,-2.0144,-2.0251,-2.0234,-2.0238,-2.024,-2.0249,-2.0294,-2.033,-2.029,-2.0291,-2.03,-2.0365,-2.0384,-2.039,-2.0458,-2.0416,-2.0419,-2.0422,-2.0424,-2.0565,-2.0566,0,0,0,0,0,0,-2.0125,-2.014,-2.0248,-2.0254,-2.0185,-2.0244,-2.0254,-2.0279,-2.033,-2.0337,-2.0301,-2.0301,-2.0377,-2.0385,-2.0393,-2.0451,-2.042,-2.0424,-2.0427,-2.0564,-2.0566,-2.0567,0,0,0,0,0,0,-2.0122,-2.0135,-2.0245,-2.0197,-2.0211,-2.0248,-2.0276,-2.0282,-2.03,-2.0339,-2.0345,-2.0314,-2.0377,-2.0387,-2.0435,-2.0454,-2.0426,-2.043,-2.0563,-2.0565,-2.0566,-2.0568,0,0,0,0,0,0,-2.0118,-2.0134,-2.0153,-2.0198,-2.0214,-2.0287,-2.0277,-2.0284,-2.0308,-2.0308,-2.0352,-2.0359,-2.0377,-2.0429,-2.044,-2.0459,-2.0433,-2.0561,-2.0564,-2.0566,-2.0566,-2.0569,-2.0572,0,0,0,0,0,-2.0113,-2.015,-2.0154,-2.0167,-2.0239,-2.0288,-2.0297,-2.0318,-2.0309,-2.0328,-2.0353,-2.0357,-2.045,-2.0434,-2.0446,-2.0467,-2.056,-2.0563,-2.0566,-2.0565,-2.0569,-2.0572,0,0,0,0,0,0,-2.0106,-2.0156,-2.0161,-2.0214,-2.0247,-2.029,-2.0315,-2.0321,-2.0357,-2.0355,-2.0379,-2.0389,-2.0435,-2.0456,-2.0437,-2.0515,-2.0504,-2.051,-2.05,-2.0504,-2.0507,-2.05,-2.0437,0,0,0,0,0,-2.0111,-2.0147,-2.0189,-2.0232,-2.0248,-2.0278,-2.0301,-2.0314,-2.0348,-2.0362,-2.039,-2.0423,-2.0459,-2.0483,-2.0519,-2.0569,-2.0578,-2.059,-2.0593,-2.0595,-2.0599,-2.0626,-2.0631,-2.0576,-2.0576,-2.0576,0,0,-2.0121,-2.0153,-2.0175,-2.0231,-2.0258,-2.0294,-2.029,-2.0329,-2.0356,-2.0368,-2.0415,-2.0436,-2.0474,-2.0524,-2.0547,-2.0543,-2.0617,-2.0599,-2.06,-2.0603,-2.063,-2.0635,-2.0639,-2.0578,-2.0577,-2.0577,0,0,-2.0158,-2.0186,-2.0225,-2.0251,-2.0292,-2.0312,-2.0321,-2.0364,-2.0378,-2.0426,-2.0435,-2.0467,-2.053,-2.0556,-2.0578,-2.0624,-2.0629,-2.0635,-2.065,-2.0676,-2.0681,-2.0685,-2.07,-2.0705,-2.0639,-2.0639,-2.0639,0,-2.0165,-2.0222,-2.0243,-2.0282,-2.0306,-2.0318,-2.0356,-2.0381,-2.0431,-2.0447,-2.0442,-2.052,-2.0547,-2.0602,-2.0613,-2.063,-2.064,-2.063,-2.0678,-2.0683,-2.0687,-2.0701,-2.0707,-2.0639,-2.0639,-2.0639,-2.0639,0,-2.0228,-2.0266,-2.0292,-2.034,-2.0367,-2.0405,-2.0432,-2.0456,-2.0467,-2.0487,-2.0534,-2.0567,-2.0609,-2.0623,-2.0633,-2.0679,-2.0675,-2.0674,-2.0663,-2.0692,-2.0706,-2.0712,-2.064,-2.064,-2.064,-2.0639,0,0,-2.0264,-2.0323,-2.0332,-2.0353,-2.0398,-2.0428,-2.0466,-2.0507,-2.0527,-2.0561,-2.0593,-2.0645,-2.0644,-2.0669,-2.0682,-2.0705,-2.0738,-2.0701,-2.0702,-2.0706,-2.0789,-2.0789,-2.0795,-2.0742,-2.0743,-2.0744,-2.0785,0,-2.0305,-2.0374,-2.0394,-2.0452,-2.0487,-2.0498,-2.0531,-2.0562,-2.0582,-2.0614,-2.0635,-2.0671,-2.0668,-2.0682,-2.0706,-2.0729,-2.0755,-2.0726,-2.077,-2.0772,-2.076,-2.0803,-2.0804,-2.0841,-2.0791,-2.0792,-2.0793,0,-2.0363,-2.0398,-2.0459,-2.0499,-2.0514,-2.0543,-2.0582,-2.0613,-2.0648,-2.066,-2.0687,-2.0698,-2.0737,-2.0725,-2.0778,-2.0758,-2.0778,-2.0792,-2.0794,-2.0798,-2.0784,-2.0808,-2.0854,-2.0859,-2.0802,-2.0801,-2.0801,0,-2.0382,-2.0444,-2.0488,-2.0506,-2.0554,-2.0574,-2.0595,-2.0628,-2.0652,-2.0685,-2.07,-2.0738,-2.0759,-2.0787,-2.0808,-2.0797,-2.0859,-2.0849,-2.087,-2.0869,-2.0882,-2.0881,-2.0931,-2.0895,-2.0895,-2.0895,-2.0895,0,-2.0426,-2.0462,-2.0497,-2.0524,-2.0565,-2.0587,-2.0627,-2.0648,-2.0677,-2.0708,-2.0721,-2.0749,-2.0775,-2.0807,-2.0823,-2.0864,-2.0873,-2.0884,-2.0888,-2.0882,-2.0881,-2.0895,-2.0892,-2.0897,-2.0896,-2.0896,-2.0896,0,-2.0453,-2.0478,-2.0527,-2.0568,-2.0579,-2.0607,-2.0642,-2.0668,-2.0688,-2.0726,-2.0737,-2.0767,-2.0805,-2.0829,-2.0877,-2.0888,-2.0932,-2.0936,-2.0921,-2.0922,-2.0941,-2.0939,-2.1002,-2.1011,-2.097,-2.097,-2.0971,0,-2.048,-2.0508,-2.0552,-2.0573,-2.0594,-2.0629,-2.0652,-2.0675,-2.0699,-2.074,-2.0761,-2.0799,-2.0831,-2.0891,-2.0917,-2.0953,-2.0957,-2.0977,-2.0963,-2.0956,-2.0956,-2.0954,-2.0957,-2.0979,-2.0979,-2.0979,-2.098,0,-2.0523,-2.0534,-2.0568,-2.0605,-2.0633,-2.0664,-2.0695,-2.0712,-2.0739,-2.0765,-2.0804,-2.0829,-2.0877,-2.0915,-2.0954,-2.0974,-2.0981,-2.0984,-2.0991,-2.0985,-2.0975,-2.098,-2.0926,-2.0982,-2.0982,-2.0982,-2.0982,-2.0982,-2.055,-2.0575,-2.061,-2.0647,-2.0672,-2.07,-2.0727,-2.075,-2.0782,-2.0824,-2.0835,-2.0875,-2.0908,-2.096,-2.0982,-2.1013,-2.101,-2.102,-2.1022,-2.1024,-2.1024,-2.097,-2.102,-2.102,-2.102,-2.102,-2.102,0,-2.0593,-2.0616,-2.065,-2.0692,-2.0721,-2.0725,-2.0759,-2.0783,-2.0818,-2.0848,-2.0879,-2.0923,-2.096,-2.0988,-2.1026,-2.1045,-2.1049,-2.1054,-2.1052,-2.1057,-2.1025,-2.1015,-2.105,-2.105,-2.105,-2.105,-2.105,-2.105,-2.0619,-2.0662,-2.0676,-2.0731,-2.0753,-2.0793,-2.0812,-2.0837,-2.0861,-2.091,-2.094,-2.0959,-2.0988,-2.1027,-2.1061,-2.1068,-2.1081,-2.1085,-2.1093,-2.1062,-2.1059,-2.1056,-2.1047,-2.1088,-2.1088,-2.1122,-2.1122,-2.1123]}]]